Tracking 28052 objects as of 24-Sep-2023
HD Live streaming from Space Station
objects crossing your sky now

STARLINK-30209

Track STARLINK-30209 now!
10-day predictions
STARLINK-30209 is classified as:


NORAD ID: 57307
Int'l Code: 2023-096T
Perigee: 564.9 km
Apogee: 567.5 km
Inclination: 43.0 °
Period: 95.8 minutes
Semi major axis: 6937 km
RCS: Unknown
Launch date: July 10, 2023
Source: United States (US)
Launch site: AIR FORCE EASTERN TEST RANGE (AFETR)
Your satellite tracking list
Your tracking list is empty




NASA's NSSDC Master Catalog

Two Line Element Set (TLE):
1 57307U 23096T   23266.86098256  .00001827  00000-0  15021-3 0  9995
2 57307  42.9995  61.4472 0001851 272.6967  87.3664 15.02549774 11471
Source of the keplerian elements: AFSPC